Regional Weather Roundup
Issued by NWS

Current Version | Previous Version | Text Only | Print | Product List | Glossary Off
Versions: 1 2 3 4 5 6 7 8 9 10 11 12 13 14 15 16 17 18 19 20 21 22 23 24 25 26 27 28 29 30 31 32 33 34 35 36 37 38 39 40 41 42 43 44 45 46 47 48

000
ASUS42 KFFC 290403
RWRGA
WEATHER ROUNDUP FOR GEORGIA
NATIONAL WEATHER SERVICE PEACHTREE CITY GA
1200 AM EDT FRI MAY 29 2015

NOTE: "FAIR" INDICATES FEW OR NO CLOUDS BELOW 12,000 FEET WITH NO
SIGNIFICANT WEATHER AND/OR OBSTRUCTIONS TO VISIBILITY.

* = USE WITH CAUTION. THE STATIONS MARKED WITH AN ASTERISK MAY NOT
REPORT WEATHER SUCH AS PRECIPITATION, FOG, OR THUNDER AND ARE NOT
QUALITY CONTROLLED BY NWS.

THE REMARK "TC" DENOTES TEMPERATURE READING IN DEGREES CELSIUS.

GAZ001>058-290500-
NORTH GEORGIA

CITY           SKY/WX    TMP DP  RH WIND       PRES   REMARKS
ATLANTA        CLOUDY    71  66  84 CALM      30.21F
ATHENS         MOCLDY    68  66  93 E3        30.22S
CHAMBLEE       CLOUDY    69  68  96 CALM      30.21F FOG
PEACHTREE CITY CLOUDY    70  67  90 CALM      30.21F
ROME           CLOUDY    69  67  93 CALM      30.20S
WEST ATLANTA   CLOUDY    69  68  96 CALM      30.21S
GAINESVILLE    MOCLDY    67  65  93 NE3       30.24F
CARTERSVILLE   CLOUDY    68  67  96 CALM      30.22S


CITY           SKY/WX    TMP DP  RH WIND       PRES   REMARKS
DALTON*        CLOUDY    66  66 100 CALM      30.20F
MARIETTA       CLOUDY    69  69 100 E2        30.21F
BLAIRSVILLE*   HAZE      64  57  78 CALM      30.26F VSB 1/4
$$

GAZ059>098-102>109-290500-
CENTRAL GEORGIA

CITY           SKY/WX    TMP DP  RH WIND       PRES   REMARKS
AUGUSTA-BUSH   PTCLDY    71  67  87 CALM      30.20R
AUGUSTA-DANIEL PTCLDY    76  67  73 E5        30.21S
COLUMBUS       CLOUDY    70  66  87 CALM      30.18S
MACON          MOCLDY    69  67  93 CALM      30.18S
ROBINS AFB     MOCLDY    70  69  95 S3        30.17S


CITY           SKY/WX    TMP DP  RH WIND       PRES   REMARKS
LAGRANGE*      CLOUDY    72  72 100 CALM      30.19F
SYLVANIA*      PTCLDY    70  66  87 CALM      30.21F
MILLEDGEVILLE* MOCLDY    73  72  94 N3        30.19S
$$

GAZ099>101-110>166-290500-
SOUTH GEORGIA

CITY           SKY/WX    TMP DP  RH WIND       PRES   REMARKS
SAVANNAH       CLEAR     68  63  84 CALM      30.20S
VALDOSTA       CLEAR     72  60  66 E3        30.17S
ALMA           CLEAR     67  60  78 E5        30.18F
FT STEWART     CLEAR     66  63  89 CALM      30.17F
ALBANY         MOCLDY    75  67  76 NW3       30.18S
HUNTER AFB     CLEAR     67  64  90 N2        30.18S
MOODY AFB      CLEAR     71  58  64 E6        30.16F
BRUNSWICK        N/A     68  64  88 CALM      30.19S


CITY           SKY/WX    TMP DP  RH WIND       PRES   REMARKS
BAINBRIDGE*    CLEAR     73  70  88 N3        30.16S
MOULTRIE*      CLOUDY    75  61  60 CALM      30.18S
VIDALIA*       PTCLDY    72  63  73 SE3       30.20S
WAYCROSS*      CLEAR     67  64  89 CALM      30.18F
DOUGLAS*       CLEAR     72  61  68 SE3       30.19F
$$



USA.gov is the U.S. government's official web portal to all federal, state and local government web resources and services.